Year,Month,Day,Hour,Minute,Value (Times are PST for temperature in C)
2010,07,08,00,00,16.60
2010,07,08,00,01,16.60
2010,07,08,00,02,16.50
2010,07,08,00,03,16.50
2010,07,08,00,04,16.50
2010,07,08,00,05,16.40
2010,07,08,00,06,16.40
2010,07,08,00,07,16.40
2010,07,08,00,08,16.30
2010,07,08,00,09,16.30
2010,07,08,00,10,16.30
2010,07,08,00,11,16.30
2010,07,08,00,12,16.20
2010,07,08,00,13,16.20
2010,07,08,00,14,16.20
2010,07,08,00,15,16.10
2010,07,08,00,16,16.10
2010,07,08,00,17,16.10
2010,07,08,00,18,16.00
2010,07,08,00,19,16.00
2010,07,08,00,20,16.00
2010,07,08,00,21,15.90
2010,07,08,00,22,15.90
2010,07,08,00,23,15.90
2010,07,08,00,24,15.90
2010,07,08,00,25,15.90
2010,07,08,00,26,15.80
2010,07,08,00,27,15.80
2010,07,08,00,28,15.80
2010,07,08,00,29,15.80
2010,07,08,00,30,15.80
2010,07,08,00,31,15.70
2010,07,08,00,32,15.70
2010,07,08,00,33,15.70
2010,07,08,00,34,15.70
2010,07,08,00,35,15.70
2010,07,08,00,36,15.60
2010,07,08,00,37,15.60
2010,07,08,00,38,15.60
2010,07,08,00,39,15.60
2010,07,08,00,40,15.60
2010,07,08,00,41,15.50
2010,07,08,00,42,15.50
2010,07,08,00,43,15.50
2010,07,08,00,44,15.50
2010,07,08,00,45,15.40
2010,07,08,00,46,15.40
2010,07,08,00,47,15.40
2010,07,08,00,48,15.40
2010,07,08,00,49,15.40
2010,07,08,00,50,15.40
2010,07,08,00,51,15.30
2010,07,08,00,52,15.30
2010,07,08,00,53,15.30
2010,07,08,00,54,15.30
2010,07,08,00,55,15.30
2010,07,08,00,56,15.20
2010,07,08,00,57,15.20
2010,07,08,00,58,15.20
2010,07,08,00,59,15.20
2010,07,08,01,00,15.20
2010,07,08,01,01,15.10
2010,07,08,01,02,15.10
2010,07,08,01,03,15.10
2010,07,08,01,04,15.00
2010,07,08,01,05,15.00
2010,07,08,01,06,15.00
2010,07,08,01,07,15.00
2010,07,08,01,08,15.00
2010,07,08,01,09,15.00
2010,07,08,01,10,15.00
2010,07,08,01,11,15.00
2010,07,08,01,12,15.00
2010,07,08,01,13,15.00
2010,07,08,01,14,15.00
2010,07,08,01,15,15.00
2010,07,08,01,16,15.00
2010,07,08,01,17,15.00
2010,07,08,01,18,15.00
2010,07,08,01,19,15.00
2010,07,08,01,20,15.00
2010,07,08,01,21,15.00
2010,07,08,01,22,15.00
2010,07,08,01,23,15.00
2010,07,08,01,24,15.00
2010,07,08,01,25,14.90
2010,07,08,01,26,14.90
2010,07,08,01,27,14.80
2010,07,08,01,28,14.80
2010,07,08,01,29,14.80
2010,07,08,01,30,14.80
2010,07,08,01,31,14.80
2010,07,08,01,32,14.70
2010,07,08,01,33,14.70
2010,07,08,01,34,14.70
2010,07,08,01,35,14.70
2010,07,08,01,36,14.70
2010,07,08,01,37,14.70
2010,07,08,01,38,14.70
2010,07,08,01,39,14.70
2010,07,08,01,40,14.60
2010,07,08,01,41,14.60
2010,07,08,01,42,14.60
2010,07,08,01,43,14.60
2010,07,08,01,44,14.60
2010,07,08,01,45,14.60
2010,07,08,01,46,14.60
2010,07,08,01,47,14.60
2010,07,08,01,48,14.60
2010,07,08,01,49,14.60
2010,07,08,01,50,14.60
2010,07,08,01,51,14.50
2010,07,08,01,52,14.50
2010,07,08,01,53,14.50
2010,07,08,01,54,14.50
2010,07,08,01,55,14.50
2010,07,08,01,56,14.40
2010,07,08,01,57,14.40
2010,07,08,01,58,14.40
2010,07,08,01,59,14.40
2010,07,08,02,00,14.40
2010,07,08,02,01,14.40
2010,07,08,02,02,14.40
2010,07,08,02,03,14.40
2010,07,08,02,04,14.30
2010,07,08,02,05,14.30
2010,07,08,02,06,14.30
2010,07,08,02,07,14.30
2010,07,08,02,08,14.30
2010,07,08,02,09,14.30
2010,07,08,02,10,14.30
2010,07,08,02,11,14.30
2010,07,08,02,12,14.30
2010,07,08,02,13,14.30
2010,07,08,02,14,14.20
2010,07,08,02,15,14.20
2010,07,08,02,16,14.20
2010,07,08,02,17,14.20
2010,07,08,02,18,14.20
2010,07,08,02,19,14.20
2010,07,08,02,20,14.20
2010,07,08,02,21,14.20
2010,07,08,02,22,14.20
2010,07,08,02,23,14.10
2010,07,08,02,24,14.10
2010,07,08,02,25,14.10
2010,07,08,02,26,14.10
2010,07,08,02,27,14.10
2010,07,08,02,28,14.10
2010,07,08,02,29,14.10
2010,07,08,02,30,14.10
2010,07,08,02,31,14.10
2010,07,08,02,32,14.10
2010,07,08,02,33,14.00
2010,07,08,02,34,14.00
2010,07,08,02,35,14.00
2010,07,08,02,36,14.00
2010,07,08,02,37,14.00
2010,07,08,02,38,14.00
2010,07,08,02,39,13.90
2010,07,08,02,40,13.90
2010,07,08,02,41,13.90
2010,07,08,02,42,13.90
2010,07,08,02,43,13.90
2010,07,08,02,44,13.90
2010,07,08,02,45,13.90
2010,07,08,02,46,13.90
2010,07,08,02,47,13.90
2010,07,08,02,48,13.90
2010,07,08,02,49,13.90
2010,07,08,02,50,13.90
2010,07,08,02,51,13.90
2010,07,08,02,52,13.80
2010,07,08,02,53,13.80
2010,07,08,02,54,13.80
2010,07,08,02,55,13.80
2010,07,08,02,56,13.80
2010,07,08,02,57,13.80
2010,07,08,02,58,13.80
2010,07,08,02,59,13.80
2010,07,08,03,00,13.80
2010,07,08,03,01,13.80
2010,07,08,03,02,13.80
2010,07,08,03,03,13.70
2010,07,08,03,04,13.70
2010,07,08,03,05,13.70
2010,07,08,03,06,13.70
2010,07,08,03,07,13.70
2010,07,08,03,08,13.70
2010,07,08,03,09,13.70
2010,07,08,03,10,13.70
2010,07,08,03,11,13.70
2010,07,08,03,12,13.70
2010,07,08,03,13,13.70
2010,07,08,03,14,13.70
2010,07,08,03,15,13.60
2010,07,08,03,16,13.60
2010,07,08,03,17,13.60
2010,07,08,03,18,13.60
2010,07,08,03,19,13.60
2010,07,08,03,20,13.60
2010,07,08,03,21,13.60
2010,07,08,03,22,13.60
2010,07,08,03,23,13.60
2010,07,08,03,24,13.60
2010,07,08,03,25,13.60
2010,07,08,03,26,13.60
2010,07,08,03,27,13.60
2010,07,08,03,28,13.60
2010,07,08,03,29,13.60
2010,07,08,03,30,13.60
2010,07,08,03,31,13.60
2010,07,08,03,32,13.60
2010,07,08,03,33,13.60
2010,07,08,03,34,13.60
2010,07,08,03,35,13.50
2010,07,08,03,36,13.50
2010,07,08,03,37,13.50
2010,07,08,03,38,13.50
2010,07,08,03,39,13.50
2010,07,08,03,40,13.50
2010,07,08,03,41,13.50
2010,07,08,03,42,13.50
2010,07,08,03,43,13.50
2010,07,08,03,44,13.40
2010,07,08,03,45,13.50
2010,07,08,03,46,13.40
2010,07,08,03,47,13.40
2010,07,08,03,48,13.40
2010,07,08,03,49,13.40
2010,07,08,03,50,13.40
2010,07,08,03,51,13.40
2010,07,08,03,52,13.40
2010,07,08,03,53,13.40
2010,07,08,03,54,13.40
2010,07,08,03,55,13.40
2010,07,08,03,56,13.40
2010,07,08,03,57,13.40
2010,07,08,03,58,13.40
2010,07,08,03,59,13.30
2010,07,08,04,00,13.30
2010,07,08,04,01,13.30
2010,07,08,04,02,13.30
2010,07,08,04,03,13.30
2010,07,08,04,04,13.30
2010,07,08,04,05,13.30
2010,07,08,04,06,13.30
2010,07,08,04,07,13.30
2010,07,08,04,08,13.30
2010,07,08,04,09,13.30
2010,07,08,04,10,13.30
2010,07,08,04,11,13.30
2010,07,08,04,12,13.30
2010,07,08,04,13,13.20
2010,07,08,04,14,13.20
2010,07,08,04,15,13.20
2010,07,08,04,16,13.20
2010,07,08,04,17,13.20
2010,07,08,04,18,13.20
2010,07,08,04,19,13.20
2010,07,08,04,20,13.20
2010,07,08,04,21,13.20
2010,07,08,04,22,13.20
2010,07,08,04,23,13.20
2010,07,08,04,24,13.10
2010,07,08,04,25,13.10
2010,07,08,04,26,13.10
2010,07,08,04,27,13.10
2010,07,08,04,28,13.10
2010,07,08,04,29,13.10
2010,07,08,04,30,13.10
2010,07,08,04,31,13.10
2010,07,08,04,32,13.10
2010,07,08,04,33,13.10
2010,07,08,04,34,13.10
2010,07,08,04,35,13.10
2010,07,08,04,36,13.10
2010,07,08,04,37,13.10
2010,07,08,04,38,13.10
2010,07,08,04,39,13.10
2010,07,08,04,40,13.10
2010,07,08,04,41,13.10
2010,07,08,04,42,13.00
2010,07,08,04,43,13.00
2010,07,08,04,44,13.00
2010,07,08,04,45,13.00
2010,07,08,04,46,13.00
2010,07,08,04,47,13.00
2010,07,08,04,48,12.90
2010,07,08,04,49,12.90
2010,07,08,04,50,12.90
2010,07,08,04,51,12.90
2010,07,08,04,52,12.90
2010,07,08,04,53,12.90
2010,07,08,04,54,12.80
2010,07,08,04,55,12.80
2010,07,08,04,56,12.80
2010,07,08,04,57,12.80
2010,07,08,04,58,12.80
2010,07,08,04,59,12.80
2010,07,08,05,00,12.80
2010,07,08,05,01,12.80
2010,07,08,05,02,12.70
2010,07,08,05,03,12.70
2010,07,08,05,04,12.70
2010,07,08,05,05,12.70
2010,07,08,05,06,12.70
2010,07,08,05,07,12.70
2010,07,08,05,08,12.70
2010,07,08,05,09,12.70
2010,07,08,05,10,12.70
2010,07,08,05,11,12.70
2010,07,08,05,12,12.70
2010,07,08,05,13,12.70
2010,07,08,05,14,12.70
2010,07,08,05,15,12.70
2010,07,08,05,16,12.70
2010,07,08,05,17,12.70
2010,07,08,05,18,12.70
2010,07,08,05,19,12.70
2010,07,08,05,20,12.70
2010,07,08,05,21,12.70
2010,07,08,05,22,12.70
2010,07,08,05,23,12.70
2010,07,08,05,24,12.70
2010,07,08,05,25,12.70
2010,07,08,05,26,12.80
2010,07,08,05,27,12.80
2010,07,08,05,28,12.80
2010,07,08,05,29,12.90
2010,07,08,05,30,13.00
2010,07,08,05,31,13.00
2010,07,08,05,32,13.10
2010,07,08,05,33,13.20
2010,07,08,05,34,13.20
2010,07,08,05,35,13.20
2010,07,08,05,36,13.30
2010,07,08,05,37,13.30
2010,07,08,05,38,13.40
2010,07,08,05,39,13.40
2010,07,08,05,40,13.40
2010,07,08,05,41,13.50
2010,07,08,05,42,13.50
2010,07,08,05,43,13.50
2010,07,08,05,44,13.50
2010,07,08,05,45,13.50
2010,07,08,05,46,13.60
2010,07,08,05,47,13.60
2010,07,08,05,48,13.60
2010,07,08,05,49,13.60
2010,07,08,05,50,13.60
2010,07,08,05,51,13.70
2010,07,08,05,52,13.70
2010,07,08,05,53,13.70
2010,07,08,05,54,13.80
2010,07,08,05,55,13.80
2010,07,08,05,56,13.80
2010,07,08,05,57,13.90
2010,07,08,05,58,14.00
2010,07,08,05,59,14.10
2010,07,08,06,00,14.20
2010,07,08,06,01,14.30
2010,07,08,06,02,14.40
2010,07,08,06,03,14.50
2010,07,08,06,04,14.80
2010,07,08,06,05,15.00
2010,07,08,06,06,15.20
2010,07,08,06,07,15.60
2010,07,08,06,08,16.10
2010,07,08,06,09,16.40
2010,07,08,06,10,16.80
2010,07,08,06,11,17.20
2010,07,08,06,12,17.60
2010,07,08,06,13,18.10
2010,07,08,06,14,18.50
2010,07,08,06,15,18.90
2010,07,08,06,16,19.20
2010,07,08,06,17,19.50
2010,07,08,06,18,19.80
2010,07,08,06,19,20.10
2010,07,08,06,20,20.30
2010,07,08,06,21,20.40
2010,07,08,06,22,20.50
2010,07,08,06,23,20.70
2010,07,08,06,24,20.70
2010,07,08,06,25,20.80
2010,07,08,06,26,20.90
2010,07,08,06,27,21.00
2010,07,08,06,28,21.00
2010,07,08,06,29,21.10
2010,07,08,06,30,21.10
2010,07,08,06,31,21.10
2010,07,08,06,32,21.20
2010,07,08,06,33,21.20
2010,07,08,06,34,21.20
2010,07,08,06,35,21.20
2010,07,08,06,36,21.20
2010,07,08,06,37,21.30
2010,07,08,06,38,21.30
2010,07,08,06,39,21.30
2010,07,08,06,40,21.30
2010,07,08,06,41,21.30
2010,07,08,06,42,21.20
2010,07,08,06,43,21.20
2010,07,08,06,44,21.20
2010,07,08,06,45,21.20
2010,07,08,06,46,21.30
2010,07,08,06,47,21.30
2010,07,08,06,48,21.30
2010,07,08,06,49,21.30
2010,07,08,06,50,21.30
2010,07,08,06,51,21.30
2010,07,08,06,52,21.30
2010,07,08,06,53,21.30
2010,07,08,06,54,21.40
2010,07,08,06,55,21.40
2010,07,08,06,56,21.40
2010,07,08,06,57,21.40
2010,07,08,06,58,21.40
2010,07,08,06,59,21.40
2010,07,08,07,00,21.50
2010,07,08,07,01,21.60
2010,07,08,07,02,21.60
2010,07,08,07,03,21.60
2010,07,08,07,04,21.60
2010,07,08,07,05,21.70
2010,07,08,07,06,21.80
2010,07,08,07,07,21.80
2010,07,08,07,08,21.80
2010,07,08,07,09,21.80
2010,07,08,07,10,21.80
2010,07,08,07,11,21.80
2010,07,08,07,12,21.80
2010,07,08,07,13,21.90
2010,07,08,07,14,21.90
2010,07,08,07,15,22.00
2010,07,08,07,16,22.00
2010,07,08,07,17,22.10
2010,07,08,07,18,22.10
2010,07,08,07,19,22.20
2010,07,08,07,20,22.20
2010,07,08,07,21,22.20
2010,07,08,07,22,22.20
2010,07,08,07,23,22.30
2010,07,08,07,24,22.30
2010,07,08,07,25,22.30
2010,07,08,07,26,22.40
2010,07,08,07,27,22.50
2010,07,08,07,28,22.50
2010,07,08,07,29,22.70
2010,07,08,07,30,22.80
2010,07,08,07,31,22.80
2010,07,08,07,32,22.90
2010,07,08,07,33,22.90
2010,07,08,07,34,23.00
2010,07,08,07,35,23.10
2010,07,08,07,36,23.10
2010,07,08,07,37,23.20
2010,07,08,07,38,23.20
2010,07,08,07,39,23.30
2010,07,08,07,40,23.30
2010,07,08,07,41,23.30
2010,07,08,07,42,23.30
2010,07,08,07,43,23.40
2010,07,08,07,44,23.40
2010,07,08,07,45,23.40
2010,07,08,07,46,23.50
2010,07,08,07,47,23.60
2010,07,08,07,48,23.60
2010,07,08,07,49,23.60
2010,07,08,07,50,23.70
2010,07,08,07,51,23.70
2010,07,08,07,52,23.70
2010,07,08,07,53,23.80
2010,07,08,07,54,23.80
2010,07,08,07,55,23.80
2010,07,08,07,56,23.80
2010,07,08,07,57,23.80
2010,07,08,07,58,23.90
2010,07,08,07,59,23.90
2010,07,08,08,00,24.00
2010,07,08,08,01,24.00
2010,07,08,08,02,24.10
2010,07,08,08,03,24.10
2010,07,08,08,04,24.20
2010,07,08,08,05,24.20
2010,07,08,08,06,24.30
2010,07,08,08,07,24.30
2010,07,08,08,08,24.40
2010,07,08,08,09,24.50
2010,07,08,08,10,24.50
2010,07,08,08,11,24.60
2010,07,08,08,12,24.60
2010,07,08,08,13,24.60
2010,07,08,08,14,24.70
2010,07,08,08,15,24.70
2010,07,08,08,16,24.70
2010,07,08,08,17,24.70
2010,07,08,08,18,24.70
2010,07,08,08,19,24.70
2010,07,08,08,20,24.70
2010,07,08,08,21,24.70
2010,07,08,08,22,24.70
2010,07,08,08,23,24.70
2010,07,08,08,24,24.70
2010,07,08,08,25,24.70
2010,07,08,08,26,24.70
2010,07,08,08,27,24.70
2010,07,08,08,28,24.70
2010,07,08,08,29,24.70
2010,07,08,08,30,24.70
2010,07,08,08,31,24.80
2010,07,08,08,32,24.80
2010,07,08,08,33,24.80
2010,07,08,08,34,24.80
2010,07,08,08,35,24.90
2010,07,08,08,36,24.90
2010,07,08,08,37,24.90
2010,07,08,08,38,25.00
2010,07,08,08,39,25.00
2010,07,08,08,40,25.10
2010,07,08,08,41,25.10
2010,07,08,08,42,25.20
2010,07,08,08,43,25.20
2010,07,08,08,44,25.20
2010,07,08,08,45,25.20
2010,07,08,08,46,25.20
2010,07,08,08,47,25.30
2010,07,08,08,48,25.30
2010,07,08,08,49,25.30
2010,07,08,08,50,25.30
2010,07,08,08,51,25.30
2010,07,08,08,52,25.30
2010,07,08,08,53,25.30
2010,07,08,08,54,25.30
2010,07,08,08,55,25.30
2010,07,08,08,56,25.30
2010,07,08,08,57,25.40
2010,07,08,08,58,25.40
2010,07,08,08,59,25.40
2010,07,08,09,00,25.50
2010,07,08,09,01,25.60
2010,07,08,09,02,25.60
2010,07,08,09,03,25.70
2010,07,08,09,04,25.70
2010,07,08,09,05,25.80
2010,07,08,09,06,25.90
2010,07,08,09,07,25.90
2010,07,08,09,08,25.90
2010,07,08,09,09,26.00
2010,07,08,09,10,26.00
2010,07,08,09,11,26.10
2010,07,08,09,12,26.10
2010,07,08,09,13,26.10
2010,07,08,09,14,26.00
2010,07,08,09,15,26.00
2010,07,08,09,16,26.00
2010,07,08,09,17,26.10
2010,07,08,09,18,26.10
2010,07,08,09,19,26.00
2010,07,08,09,20,26.00
2010,07,08,09,21,26.00
2010,07,08,09,22,26.00
2010,07,08,09,23,26.00
2010,07,08,09,24,26.00
2010,07,08,09,25,26.10
2010,07,08,09,26,26.10
2010,07,08,09,27,26.10
2010,07,08,09,28,26.10
2010,07,08,09,29,26.10
2010,07,08,09,30,26.10
2010,07,08,09,31,26.10
2010,07,08,09,32,26.20
2010,07,08,09,33,26.20
2010,07,08,09,34,26.20
2010,07,08,09,35,26.20
2010,07,08,09,36,26.30
2010,07,08,09,37,26.30
2010,07,08,09,38,26.30
2010,07,08,09,39,26.30
2010,07,08,09,40,26.40
2010,07,08,09,41,26.40
2010,07,08,09,42,26.40
2010,07,08,09,43,26.40
2010,07,08,09,44,26.40
2010,07,08,09,45,26.40
2010,07,08,09,46,26.50
2010,07,08,09,47,26.50
2010,07,08,09,48,26.50
2010,07,08,09,49,26.40
2010,07,08,09,50,26.40
2010,07,08,09,51,26.30
2010,07,08,09,52,26.30
2010,07,08,09,53,26.30
2010,07,08,09,54,26.30
2010,07,08,09,55,26.30
2010,07,08,09,56,26.40
2010,07,08,09,57,26.40
2010,07,08,09,58,26.50
2010,07,08,09,59,26.50
2010,07,08,10,00,26.50
2010,07,08,10,01,26.60
2010,07,08,10,02,26.60
2010,07,08,10,03,26.60
2010,07,08,10,04,26.70
2010,07,08,10,05,26.70
2010,07,08,10,06,26.60
2010,07,08,10,07,26.60
2010,07,08,10,08,26.50
2010,07,08,10,09,26.50
2010,07,08,10,10,26.40
2010,07,08,10,11,26.40
2010,07,08,10,12,26.40
2010,07,08,10,13,26.40
2010,07,08,10,14,26.40
2010,07,08,10,15,26.40
2010,07,08,10,16,26.40
2010,07,08,10,17,26.40
2010,07,08,10,18,26.40
2010,07,08,10,19,26.40
2010,07,08,10,20,26.40
2010,07,08,10,21,26.40
2010,07,08,10,22,26.50
2010,07,08,10,23,26.50
2010,07,08,10,24,26.60
2010,07,08,10,25,26.60
2010,07,08,10,26,26.60
2010,07,08,10,27,26.60
2010,07,08,10,28,26.60
2010,07,08,10,29,26.60
2010,07,08,10,30,26.60
2010,07,08,10,31,26.60
2010,07,08,10,32,26.60
2010,07,08,10,33,26.60
2010,07,08,10,34,26.60
2010,07,08,10,35,26.60
2010,07,08,10,36,26.60
2010,07,08,10,37,26.70
2010,07,08,10,38,26.70
2010,07,08,10,39,26.70
2010,07,08,10,40,26.70
2010,07,08,10,41,26.70
2010,07,08,10,42,26.80
2010,07,08,10,43,26.90
2010,07,08,10,44,27.00
2010,07,08,10,45,27.10
2010,07,08,10,46,27.20
2010,07,08,10,47,27.30
2010,07,08,10,48,27.40
2010,07,08,10,49,27.50
2010,07,08,10,50,27.60
2010,07,08,10,51,27.70
2010,07,08,10,52,27.70
2010,07,08,10,53,27.70
2010,07,08,10,54,27.70
2010,07,08,10,55,27.70
2010,07,08,10,56,27.70
2010,07,08,10,57,27.70
2010,07,08,10,58,27.70
2010,07,08,10,59,27.70
2010,07,08,11,00,27.70
2010,07,08,11,01,27.70
2010,07,08,11,02,27.70
2010,07,08,11,03,27.70
2010,07,08,11,04,27.70
2010,07,08,11,05,27.70
2010,07,08,11,06,27.60
2010,07,08,11,07,27.60
2010,07,08,11,08,27.70
2010,07,08,11,09,27.70
2010,07,08,11,10,27.70
2010,07,08,11,11,27.70
2010,07,08,11,12,27.70
2010,07,08,11,13,27.70
2010,07,08,11,14,27.80
2010,07,08,11,15,27.90
2010,07,08,11,16,28.00
2010,07,08,11,17,28.20
2010,07,08,11,18,28.30
2010,07,08,11,19,28.40
2010,07,08,11,20,28.50
2010,07,08,11,21,28.50
2010,07,08,11,22,28.60
2010,07,08,11,23,28.60
2010,07,08,11,24,28.60
2010,07,08,11,25,28.50
2010,07,08,11,26,28.50
2010,07,08,11,27,28.40
2010,07,08,11,28,28.40
2010,07,08,11,29,28.40
2010,07,08,11,30,28.30
2010,07,08,11,31,28.30
2010,07,08,11,32,28.40
2010,07,08,11,33,28.40
2010,07,08,11,34,28.50
2010,07,08,11,35,28.50
2010,07,08,11,36,28.60
2010,07,08,11,37,28.60
2010,07,08,11,38,28.50
2010,07,08,11,39,28.50
2010,07,08,11,40,28.60
2010,07,08,11,41,28.60
2010,07,08,11,42,28.60
2010,07,08,11,43,28.70
2010,07,08,11,44,28.70
2010,07,08,11,45,28.70
2010,07,08,11,46,28.80
2010,07,08,11,47,28.80
2010,07,08,11,48,28.80
2010,07,08,11,49,28.90
2010,07,08,11,50,28.90
2010,07,08,11,51,28.90
2010,07,08,11,52,28.90
2010,07,08,11,53,28.90
2010,07,08,11,54,29.00
2010,07,08,11,55,29.00
2010,07,08,11,56,29.10
2010,07,08,11,57,29.20
2010,07,08,11,58,29.30
2010,07,08,11,59,29.40
2010,07,08,12,00,29.40
2010,07,08,12,01,29.40
2010,07,08,12,02,29.40
2010,07,08,12,03,29.30
2010,07,08,12,04,29.30
2010,07,08,12,05,29.30
2010,07,08,12,06,29.20
2010,07,08,12,07,29.20
2010,07,08,12,08,29.20
2010,07,08,12,09,29.30
2010,07,08,12,10,29.30
2010,07,08,12,11,29.40
2010,07,08,12,12,29.40
2010,07,08,12,13,29.40
2010,07,08,12,14,29.40
2010,07,08,12,15,29.30
2010,07,08,12,16,29.30
2010,07,08,12,17,29.20
2010,07,08,12,18,29.20
2010,07,08,12,19,29.20
2010,07,08,12,20,29.30
2010,07,08,12,21,29.40
2010,07,08,12,22,29.40
2010,07,08,12,23,29.50
2010,07,08,12,24,29.60
2010,07,08,12,25,29.60
2010,07,08,12,26,29.60
2010,07,08,12,27,29.60
2010,07,08,12,28,29.70
2010,07,08,12,29,29.70
2010,07,08,12,30,29.70
2010,07,08,12,31,29.70
2010,07,08,12,32,29.70
2010,07,08,12,33,29.70
2010,07,08,12,34,29.80
2010,07,08,12,35,29.80
2010,07,08,12,36,29.80
2010,07,08,12,37,29.80
2010,07,08,12,38,29.90
2010,07,08,12,39,29.80
2010,07,08,12,40,29.80
2010,07,08,12,41,29.80
2010,07,08,12,42,29.70
2010,07,08,12,43,29.70
2010,07,08,12,44,29.60
2010,07,08,12,45,29.60
2010,07,08,12,46,29.60
2010,07,08,12,47,29.50
2010,07,08,12,48,29.40
2010,07,08,12,49,29.30
2010,07,08,12,50,29.20
2010,07,08,12,51,29.10
2010,07,08,12,52,29.10
2010,07,08,12,53,29.00
2010,07,08,12,54,29.00
2010,07,08,12,55,29.00
2010,07,08,12,56,29.10
2010,07,08,12,57,29.10
2010,07,08,12,58,29.10
2010,07,08,12,59,29.20
2010,07,08,13,00,29.20
2010,07,08,13,01,29.30
2010,07,08,13,02,29.50
2010,07,08,13,03,29.60
2010,07,08,13,04,29.70
2010,07,08,13,05,29.90
2010,07,08,13,06,29.90
2010,07,08,13,07,29.90
2010,07,08,13,08,29.80
2010,07,08,13,09,29.80
2010,07,08,13,10,29.70
2010,07,08,13,11,29.70
2010,07,08,13,12,29.70
2010,07,08,13,13,29.80
2010,07,08,13,14,29.80
2010,07,08,13,15,29.90
2010,07,08,13,16,30.00
2010,07,08,13,17,30.10
2010,07,08,13,18,30.20
2010,07,08,13,19,30.20
2010,07,08,13,20,30.20
2010,07,08,13,21,30.10
2010,07,08,13,22,30.10
2010,07,08,13,23,30.10
2010,07,08,13,24,30.10
2010,07,08,13,25,30.10
2010,07,08,13,26,30.00
2010,07,08,13,27,29.80
2010,07,08,13,28,29.70
2010,07,08,13,29,29.60
2010,07,08,13,30,29.50
2010,07,08,13,31,29.60
2010,07,08,13,32,29.60
2010,07,08,13,33,29.60
2010,07,08,13,34,29.60
2010,07,08,13,35,29.70
2010,07,08,13,36,29.70
2010,07,08,13,37,29.80
2010,07,08,13,38,29.80
2010,07,08,13,39,29.80
2010,07,08,13,40,29.90
2010,07,08,13,41,30.00
2010,07,08,13,42,30.00
2010,07,08,13,43,30.10
2010,07,08,13,44,30.20
2010,07,08,13,45,30.20
2010,07,08,13,46,30.30
2010,07,08,13,47,30.30
2010,07,08,13,48,30.40
2010,07,08,13,49,30.40
2010,07,08,13,50,30.50
2010,07,08,13,51,30.60
2010,07,08,13,52,30.60
2010,07,08,13,53,30.60
2010,07,08,13,54,30.60
2010,07,08,13,55,30.70
2010,07,08,13,56,30.80
2010,07,08,13,57,30.90
2010,07,08,13,58,31.10
2010,07,08,13,59,31.10
2010,07,08,14,00,31.20
2010,07,08,14,01,31.20
2010,07,08,14,02,31.10
2010,07,08,14,03,31.10
2010,07,08,14,04,31.00
2010,07,08,14,05,31.00
2010,07,08,14,06,31.00
2010,07,08,14,07,31.10
2010,07,08,14,08,31.10
2010,07,08,14,09,31.20
2010,07,08,14,10,31.30
2010,07,08,14,11,31.30
2010,07,08,14,12,31.40
2010,07,08,14,13,31.40
2010,07,08,14,14,31.50
2010,07,08,14,15,31.50
2010,07,08,14,16,31.60
2010,07,08,14,17,31.60
2010,07,08,14,18,31.70
2010,07,08,14,19,31.70
2010,07,08,14,20,31.80
2010,07,08,14,21,31.90
2010,07,08,14,22,32.00
2010,07,08,14,23,32.10
2010,07,08,14,24,32.20
2010,07,08,14,25,32.20
2010,07,08,14,26,32.20
2010,07,08,14,27,32.20
2010,07,08,14,28,32.10
2010,07,08,14,29,32.10
2010,07,08,14,30,32.10
2010,07,08,14,31,32.00
2010,07,08,14,32,32.00
2010,07,08,14,33,31.90
2010,07,08,14,34,31.90
2010,07,08,14,35,31.90
2010,07,08,14,36,31.80
2010,07,08,14,37,31.70
2010,07,08,14,38,31.70
2010,07,08,14,39,31.60
2010,07,08,14,40,31.60
2010,07,08,14,41,31.50
2010,07,08,14,42,31.50
2010,07,08,14,43,31.60
2010,07,08,14,44,31.60
2010,07,08,14,45,31.60
2010,07,08,14,46,31.60
2010,07,08,14,47,31.70
2010,07,08,14,48,31.70
2010,07,08,14,49,31.80
2010,07,08,14,50,31.90
2010,07,08,14,51,31.90
2010,07,08,14,52,32.00
2010,07,08,14,53,32.00
2010,07,08,14,54,32.10
2010,07,08,14,55,32.10
2010,07,08,14,56,32.20
2010,07,08,14,57,32.20
2010,07,08,14,58,32.30
2010,07,08,14,59,32.30
2010,07,08,15,00,32.40
2010,07,08,15,01,32.40
2010,07,08,15,02,32.50
2010,07,08,15,03,32.60
2010,07,08,15,04,32.60
2010,07,08,15,05,32.70
2010,07,08,15,06,32.70
2010,07,08,15,07,32.80
2010,07,08,15,08,32.80
2010,07,08,15,09,32.90
2010,07,08,15,10,33.10
2010,07,08,15,11,33.20
2010,07,08,15,12,33.40
2010,07,08,15,13,33.50
2010,07,08,15,14,33.50
2010,07,08,15,15,33.50
2010,07,08,15,16,33.50
2010,07,08,15,17,33.40
2010,07,08,15,18,33.30
2010,07,08,15,19,33.30
2010,07,08,15,20,33.30
2010,07,08,15,21,33.20
2010,07,08,15,22,33.20
2010,07,08,15,23,33.30
2010,07,08,15,24,33.30
2010,07,08,15,25,33.30
2010,07,08,15,26,33.20
2010,07,08,15,27,33.20
2010,07,08,15,28,33.20
2010,07,08,15,29,33.10
2010,07,08,15,30,33.10
2010,07,08,15,31,33.10
2010,07,08,15,32,33.10
2010,07,08,15,33,33.00
2010,07,08,15,34,33.00
2010,07,08,15,35,32.80
2010,07,08,15,36,32.70
2010,07,08,15,37,32.70
2010,07,08,15,38,32.60
2010,07,08,15,39,32.60
2010,07,08,15,40,32.60
2010,07,08,15,41,32.60
2010,07,08,15,42,32.60
2010,07,08,15,43,32.60
2010,07,08,15,44,32.60
2010,07,08,15,45,32.60
2010,07,08,15,46,32.70
2010,07,08,15,47,32.70
2010,07,08,15,48,32.80
2010,07,08,15,49,32.90
2010,07,08,15,50,33.00
2010,07,08,15,51,33.00
2010,07,08,15,52,33.10
2010,07,08,15,53,33.10
2010,07,08,15,54,33.10
2010,07,08,15,55,33.10
2010,07,08,15,56,33.10
2010,07,08,15,57,33.10
2010,07,08,15,58,33.20
2010,07,08,15,59,33.20
2010,07,08,16,00,33.30
2010,07,08,16,01,33.40
2010,07,08,16,02,33.50
2010,07,08,16,03,33.50
2010,07,08,16,04,33.60
2010,07,08,16,05,33.60
2010,07,08,16,06,33.60
2010,07,08,16,07,33.60
2010,07,08,16,08,33.50
2010,07,08,16,09,33.50
2010,07,08,16,10,33.40
2010,07,08,16,11,33.30
2010,07,08,16,12,33.30
2010,07,08,16,13,33.30
2010,07,08,16,14,33.20
2010,07,08,16,15,33.20
2010,07,08,16,16,33.20
2010,07,08,16,17,33.30
2010,07,08,16,18,33.30
2010,07,08,16,19,33.30
2010,07,08,16,20,33.30
2010,07,08,16,21,33.30
2010,07,08,16,22,33.30
2010,07,08,16,23,33.20
2010,07,08,16,24,33.20
2010,07,08,16,25,33.10
2010,07,08,16,26,33.10
2010,07,08,16,27,33.10
2010,07,08,16,28,33.10
2010,07,08,16,29,33.10
2010,07,08,16,30,33.00
2010,07,08,16,31,33.00
2010,07,08,16,32,32.90
2010,07,08,16,33,32.90
2010,07,08,16,34,32.90
2010,07,08,16,35,32.80
2010,07,08,16,36,32.80
2010,07,08,16,37,32.80
2010,07,08,16,38,32.80
2010,07,08,16,39,32.80
2010,07,08,16,40,32.80
2010,07,08,16,41,32.80
2010,07,08,16,42,32.80
2010,07,08,16,43,32.80
2010,07,08,16,44,32.80
2010,07,08,16,45,32.80
2010,07,08,16,46,32.80
2010,07,08,16,47,32.80
2010,07,08,16,48,32.80
2010,07,08,16,49,32.80
2010,07,08,16,50,32.80
2010,07,08,16,51,32.80
2010,07,08,16,52,32.90
2010,07,08,16,53,32.90
2010,07,08,16,54,32.90
2010,07,08,16,55,33.00
2010,07,08,16,56,33.00
2010,07,08,16,57,33.10
2010,07,08,16,58,33.10
2010,07,08,16,59,33.10
2010,07,08,17,00,33.10
2010,07,08,17,01,33.20
2010,07,08,17,02,33.20
2010,07,08,17,03,33.20
2010,07,08,17,04,33.20
2010,07,08,17,05,33.20
2010,07,08,17,06,33.20
2010,07,08,17,07,33.20
2010,07,08,17,08,33.20
2010,07,08,17,09,33.20
2010,07,08,17,10,33.20
2010,07,08,17,11,33.20
2010,07,08,17,12,33.20
2010,07,08,17,13,33.20
2010,07,08,17,14,33.20
2010,07,08,17,15,33.30
2010,07,08,17,16,33.30
2010,07,08,17,17,33.30
2010,07,08,17,18,33.30
2010,07,08,17,19,33.30